Weather History for NW Arkansas Airport, AR

Change the Weather History Date:

Saturday, March 23, 2013

  Actual Average Record
Temperature  
Mean Temperature 37 °F -  
Max Temperature 39 °F - - ()
Min Temperature 35 °F - - ()
Degree Days  
Heating Degree Days 28    
Moisture  
Dew Point 31 °F    
Average Humidity 77    
Maximum Humidity 89    
Minimum Humidity 65    
Precipitation  
Precipitation 0.00 in - - ()
Sea Level Pressure  
Sea Level Pressure 29.82 in    
Wind  
Wind Speed 8 mph (ENE)    
Max Wind Speed 14 mph    
Max Gust Speed -    
Visibility 4 miles    
Events      
T = Trace of Precipitation, MM = Missing Value Source: NWS Daily Summary

Daily Weather History Graph

Daily Weather History Graph

Search for Another Location

Airport:

Trip Planner

Search our weather history database for the weather conditions in past years. The results will help you decide how hot, cold, wet, or windy it might be!

Date:

Astronomy

Mar. 23, 2013 Rise Set
Actual Time 7:16 AM CDT 7:31 PM CDT
Civil Twilight 6:50 AM CDT 7:57 PM CDT
Nautical Twilight 6:20 AM CDT 8:27 PM CDT
Astronomical Twilight 5:49 AM CDT 8:58 PM CDT
Moon 4:04 PM CDT (3/23) 4:46 AM CDT (3/23)
Length of Visible Light 13h 07m
Length of Day
12h 15m
Waxing Gibbous, 85% of the Moon is Illuminated
Mar 23
Waxing Gibbous
Mar 27
Full
Apr 2
Last Quarter
Apr 10
New
Apr 18
First Quarter

Hourly Weather History & Observations

Time (CDT) Temp. Windchill Dew Point Humidity Pressure Visibility Wind Dir Wind Speed Gust Speed Precip Events Conditions
12:53 AM 36.0 °F 29.6 °F 30.9 °F 82% 29.90 in 6.0 mi NE 8.1 mph - N/A   Haze
2:53 AM 36.0 °F 31.1 °F 32.0 °F 86% 29.89 in 6.0 mi ENE 5.8 mph - N/A   Overcast
3:15 AM 35.6 °F 28.6 °F 32.0 °F 87% 29.88 in 5.0 mi NE 9.2 mph - N/A   Overcast
3:53 AM 35.1 °F 27.4 °F 32.0 °F 89% 29.88 in 5.0 mi ENE 10.4 mph - N/A   Overcast
4:53 AM 36.0 °F 30.3 °F 33.1 °F 89% 29.86 in 6.0 mi ENE 6.9 mph - N/A   Overcast
5:53 AM 36.0 °F 29.6 °F 32.0 °F 86% 29.88 in 5.0 mi East 8.1 mph - N/A   Overcast
6:53 AM 36.0 °F 31.1 °F 32.0 °F 86% 29.88 in 3.0 mi ENE 5.8 mph - N/A   Overcast
7:53 AM 36.0 °F 30.3 °F 32.0 °F 86% 29.89 in 4.0 mi ENE 6.9 mph - N/A   Overcast
8:53 AM 36.0 °F 29.6 °F 32.0 °F 86% 29.91 in 4.0 mi NE 8.1 mph - N/A   Overcast
9:53 AM 36.0 °F 28.5 °F 30.9 °F 82% 29.89 in 3.0 mi ENE 10.4 mph - N/A   Haze
10:53 AM 37.0 °F 31.0 °F 32.0 °F 82% 29.89 in 4.0 mi ENE 8.1 mph - N/A   Haze
11:48 AM 37.4 °F 31.4 °F 32.0 °F 81% 29.86 in 2.0 mi ENE 8.1 mph - N/A   Haze
11:53 AM 37.9 °F 31.5 °F 32.0 °F 79% 29.88 in 1.8 mi East 9.2 mph - N/A   Haze
12:53 PM 37.9 °F 31.5 °F 32.0 °F 79% 29.88 in 1.5 mi East 9.2 mph - N/A   Haze
1:04 PM 37.4 °F 30.8 °F 32.0 °F 81% 29.85 in 2.0 mi East 9.2 mph - N/A   Haze
1:15 PM 37.4 °F 30.8 °F 32.0 °F 81% 29.84 in 1.5 mi East 9.2 mph - N/A   Haze
1:22 PM 37.4 °F 31.4 °F 32.0 °F 81% 29.84 in 1.2 mi ENE 8.1 mph - N/A   Haze
1:51 PM 37.4 °F 29.8 °F 30.2 °F 75% 29.82 in 1.5 mi ENE 11.5 mph - N/A   Haze
1:53 PM 39.0 °F 32.3 °F 30.0 °F 70% 29.83 in 1.5 mi NE 10.4 mph - N/A   Haze
2:17 PM 39.2 °F 33.0 °F 30.2 °F 70% 29.81 in 2.0 mi ENE 9.2 mph - N/A   Haze
2:39 PM 39.2 °F 32.5 °F 32.0 °F 75% 29.79 in 3.0 mi ENE 10.4 mph - N/A   Haze
2:53 PM 39.9 °F 33.4 °F 32.0 °F 73% 29.79 in 4.0 mi ENE 10.4 mph - N/A   Haze
3:40 PM 39.2 °F 32.5 °F 32.0 °F 75% 29.76 in 6.0 mi ENE 10.4 mph - N/A   Overcast
3:53 PM 39.9 °F 33.4 °F 32.0 °F 73% 29.77 in 5.0 mi ENE 10.4 mph - N/A   Overcast
4:53 PM 39.9 °F 34.5 °F 30.9 °F 70% 29.75 in 8.0 mi East 8.1 mph - N/A   Overcast
5:53 PM 39.9 °F 32.1 °F 30.9 °F 70% 29.73 in 8.0 mi ENE 13.8 mph - N/A   Overcast
6:53 PM 39.9 °F 35.1 °F 30.9 °F 70% 29.73 in 6.0 mi East 6.9 mph - N/A   Haze
7:53 PM 39.9 °F 35.8 °F 30.9 °F 70% 29.74 in 7.0 mi ENE 5.8 mph - N/A   Overcast
8:39 PM 39.2 °F 35.0 °F 30.2 °F 70% 29.74 in 2.0 mi East 5.8 mph - N/A   Haze
8:48 PM 39.2 °F 35.0 °F 30.2 °F 70% 29.75 in 1.8 mi East 5.8 mph - N/A   Haze
8:53 PM 39.0 °F 34.8 °F 30.9 °F 73% 29.77 in 1.8 mi ENE 5.8 mph - N/A   Haze
9:53 PM 39.0 °F 34.8 °F 30.9 °F 73% 29.77 in 1.5 mi ENE 5.8 mph - N/A   Haze
10:43 PM 39.2 °F 33.0 °F 30.2 °F 70% 29.70 in 2.0 mi ENE 9.2 mph - 0.00 in   Haze
10:53 PM 39.0 °F 32.8 °F 30.9 °F 73% 29.71 in 2.5 mi ENE 9.2 mph - 0.00 in   Haze
11:06 PM 39.2 °F 35.9 °F 30.2 °F 70% 29.72 in 3.0 mi East 4.6 mph - N/A   Haze
11:53 PM 39.0 °F - 28.0 °F 65% 29.76 in 4.0 mi Calm Calm - N/A   Haze